KF5JED-13 Weather Reports


time (UTC)temp
C
wind
direction
speed
KPH
gust
KPH
rain 1hr
cm
rain 24hr
cm
rain mn
cm
humidity
%
barometer
mb
20260509230853 32 256 11.3 16.1 0.00 0.00 0.00 11 1007.9
20260509230350 32 297 16.1 24.1 0.00 0.00 0.00 11 1008.0
20260509225845 32 301 20.9 25.7 0.00 0.00 0.00 11 1008.0
20260509225342 32 298 9.7 19.3 0.00 0.00 0.00 11 1008.2
20260509224838 32 300 12.9 17.7 0.00 0.00 0.00 12 1008.2
20260509224334 32 291 12.9 29.0 0.00 0.00 0.00 13 1008.2
20260509223831 32 309 14.5 17.7 0.00 0.00 0.00 12 1008.0
20260509223328 32 283 9.7 17.7 0.00 0.00 0.00 12 1008.0
20260509222825 32 309 16.1 24.1 0.00 0.00 0.00 11 1008.2
20260509222320 32 322 9.7 32.2 0.00 0.00 0.00 12 1008.1
20260509221816 32 300 9.7 24.1 0.00 0.00 0.00 12 1008.2
20260509221313 32 299 9.7 25.7 0.00 0.00 0.00 14 1008.1
20260509220808 32 317 20.9 25.7 0.00 0.00 0.00 13 1008.2
20260509220305 32 288 12.9 27.4 0.00 0.00 0.00 14 1008.6
20260509215800 33 306 17.7 19.3 0.00 0.00 0.00 13 1008.1
20260509215257 32 286 9.7 25.7 0.00 0.00 0.00 15 1008.3
20260509214754 33 286 12.9 20.9 0.00 0.00 0.00 15 1008.2
20260509214251 32 239 9.7 20.9 0.00 0.00 0.00 15 1008.3
20260509213748 32 299 12.9 27.4 0.00 0.00 0.00 14 1008.7
20260509213244 32 227 8.0 16.1 0.00 0.00 0.00 14 1008.6
20260509212741 33 308 24.1 27.4 0.00 0.00 0.00 14 1008.4
20260509212239 32 277 12.9 32.2 0.00 0.00 0.00 14 1008.7
20260509211734 32 294 22.5 22.5 0.00 0.00 0.00 15 1008.6
20260509211231 32 271 9.7 27.4 0.00 0.00 0.00 17 1008.8
20260509210727 32 267 12.9 22.5 0.00 0.00 0.00 16 1008.8
20260509210225 32 289 16.1 24.1 0.00 0.00 0.00 17 1008.7
20260509205724 32 320 20.9 30.6 0.00 0.00 0.00 18 1008.8
20260509205224 32 297 8.0 17.7 0.00 0.00 0.00 17 1008.7
20260509204721 32 296 12.9 22.5 0.00 0.00 0.00 18 1009.0
20260509204217 32 291 17.7 32.2 0.00 0.00 0.00 18 1009.0
20260509203713 32 296 20.9 30.6 0.00 0.00 0.00 18 1009.1
20260509203211 31 243 16.1 27.4 0.00 0.00 0.00 19 1009.3
20260509202707 31 313 17.7 27.4 0.00 0.00 0.00 18 1009.3
20260509202202 32 299 14.5 20.9 0.00 0.00 0.00 19 1009.4
20260509201657 31 275 11.3 22.5 0.00 0.00 0.00 20 1009.1
20260509201154 31 317 20.9 24.1 0.00 0.00 0.00 19 1009.4
20260509200651 32 233 8.0 17.7 0.00 0.00 0.00 18 1009.2
20260509200145 32 292 14.5 22.5 0.00 0.00 0.00 21 1009.3
20260509195641 31 231 6.4 20.9 0.00 0.00 0.00 20 1009.4
20260509195136 31 210 9.7 20.9 0.00 0.00 0.00 19 1009.6
20260509194631 32 231 9.7 20.9 0.00 0.00 0.00 18 1009.8
20260509194129 31 258 14.5 24.1 0.00 0.00 0.00 20 1009.6
20260509193624 31 233 11.3 17.7 0.00 0.00 0.00 21 1009.7
20260509193120 31 227 20.9 27.4 0.00 0.00 0.00 20 1009.9
20260509192617 31 236 3.2 19.3 0.00 0.00 0.00 20 1010.0
20260509192112 31 225 6.4 24.1 0.00 0.00 0.00 20 1010.2
20260509191607 31 234 20.9 30.6 0.00 0.00 0.00 20 1010.1
20260509191103 31 264 6.4 17.7 0.00 0.00 0.00 23 1010.2
20260509190600 30 286 4.8 20.9 0.00 0.00 0.00 22 1010.1
20260509190058 31 301 14.5 17.7 0.00 0.00 0.00 24 1010.3
20260509185555 30 295 9.7 24.1 0.00 0.00 0.00 23 1010.3
20260509185051 30 227 16.1 20.9 0.00 0.00 0.00 23 1010.3
20260509184550 30 235 6.4 24.1 0.00 0.00 0.00 24 1010.7
20260509184045 30 212 17.7 27.4 0.00 0.00 0.00 24 1010.8
20260509183541 29 268 11.3 24.1 0.00 0.00 0.00 24 1010.7
20260509183036 30 239 16.1 27.4 0.00 0.00 0.00 23 1010.8
20260509182533 30 221 24.1 41.8 0.00 0.00 0.00 23 1010.8
20260509182025 30 205 20.9 35.4 0.00 0.00 0.00 24 1010.9
20260509181523 30 221 17.7 25.7 0.00 0.00 0.00 25 1011.1
20260509181020 30 227 19.3 25.7 0.00 0.00 0.00 25 1011.3
20260509180515 29 212 17.7 27.4 0.00 0.00 0.00 26 1011.3
20260509180014 30 200 25.7 37.0 0.00 0.00 0.00 24 1011.5
20260509175508 28 207 8.0 20.9 0.00 0.00 0.00 27 1011.6
20260509175005 28 228 25.7 40.2 0.00 0.00 0.00 27 1011.7
20260509174502 28 212 19.3 27.4 0.00 0.00 0.00 28 1011.8
20260509173956 30 197 27.4 30.6 0.00 0.00 0.00 26 1011.8
20260509173451 29 218 20.9 30.6 0.00 0.00 0.00 28 1011.9
20260509172948 28 174 16.1 32.2 0.00 0.00 0.00 28 1011.8
20260509172445 28 203 17.7 22.5 0.00 0.00 0.00 30 1012.0
20260509171940 28 198 19.3 32.2 0.00 0.00 0.00 29 1012.2
20260509171437 28 210 16.1 25.7 0.00 0.00 0.00 30 1012.1
20260509170933 28 190 17.7 27.4 0.00 0.00 0.00 29 1012.1
20260509170429 28 200 27.4 38.6 0.00 0.00 0.00 30 1011.9
20260509165925 27 194 11.3 27.4 0.00 0.00 0.00 32 1012.1
20260509165419 27 204 11.3 30.6 0.00 0.00 0.00 33 1012.3
20260509164915 27 172 17.7 32.2 0.00 0.00 0.00 32 1012.3
20260509164411 27 197 24.1 30.6 0.00 0.00 0.00 32 1012.3
20260509163907 27 203 22.5 27.4 0.00 0.00 0.00 32 1012.5
20260509163404 26 213 24.1 32.2 0.00 0.00 0.00 34 1012.6
20260509162903 26 203 12.9 33.8 0.00 0.00 0.00 35 1012.8
20260509162402 26 202 17.7 35.4 0.00 0.00 0.00 35 1012.6
20260509161858 26 161 11.3 27.4 0.00 0.00 0.00 37 1012.8
20260509161354 26 176 19.3 29.0 0.00 0.00 0.00 36 1012.9
20260509160850 26 164 17.7 25.7 0.00 0.00 0.00 36 1012.8
20260509160346 26 164 14.5 32.2 0.00 0.00 0.00 37 1013.0
20260509155841 25 168 17.7 30.6 0.00 0.00 0.00 39 1012.9
20260509155338 25 172 14.5 32.2 0.00 0.00 0.00 38 1013.0
20260509154834 25 164 20.9 30.6 0.00 0.00 0.00 36 1012.9
20260509154331 25 159 22.5 27.4 0.00 0.00 0.00 40 1013.2
20260509153828 25 179 14.5 22.5 0.00 0.00 0.00 42 1013.1
20260509153324 24 152 22.5 24.1 0.00 0.00 0.00 41 1013.1
20260509152822 24 178 22.5 24.1 0.00 0.00 0.00 42 1013.0
20260509152317 23 193 12.9 29.0 0.00 0.00 0.00 46 1013.2
20260509151815 23 159 17.7 17.7 0.00 0.00 0.00 47 1013.3
20260509151311 23 186 14.5 25.7 0.00 0.00 0.00 47 1013.3
20260509150810 23 174 16.1 25.7 0.00 0.00 0.00 46 1013.3
20260509150307 23 187 16.1 22.5 0.00 0.00 0.00 49 1013.2
20260509145804 23 170 14.5 20.9 0.00 0.00 0.00 48 1013.2
20260509145306 23 164 19.3 22.5 0.00 0.00 0.00 51 1013.3
20260509144800 22 119 9.7 16.1 0.00 0.00 0.00 54 1013.5
20260509144257 21 162 14.5 17.7 0.00 0.00 0.00 53 1013.3
20260509143755 21 151 17.7 22.5 0.00 0.00 0.00 53 1013.5
20260509143252 22 155 14.5 20.9 0.00 0.00 0.00 52 1013.5
20260509142748 21 152 19.3 25.7 0.00 0.00 0.00 53 1013.6
20260509142244 21 159 20.9 27.4 0.00 0.00 0.00 52 1013.3
20260509141740 21 165 14.5 20.9 0.00 0.00 0.00 53 1013.6
20260509141237 21 130 8.0 11.3 0.00 0.00 0.00 54 1013.5
20260509140734 21 148 4.8 8.0 0.00 0.00 0.00 54 1013.5
20260509140231 21 95 4.8 6.4 0.00 0.00 0.00 50 1013.6
20260509135728 20 10 3.2 3.2 0.00 0.00 0.00 47 1013.6
20260509135226 18 4 3.2 3.2 0.00 0.00 0.00 47 1013.6
20260509134723 17 63 3.2 4.8 0.00 0.00 0.00 50 1013.7
20260509134221 16 17 3.2 4.8 0.00 0.00 0.00 50 1013.6
20260509133718 16 322 4.8 6.4 0.00 0.00 0.00 48 1013.7
20260509133214 18 19 4.8 6.4 0.00 0.00 0.00 47 1013.3
20260509132713 18 61 3.2 4.8 0.00 0.00 0.00 46 1013.6
20260509132211 17 50 0.0 3.2 0.00 0.00 0.00 49 1013.8
20260509131707 17 85 6.4 6.4 0.00 0.00 0.00 48 1013.3
20260509131204 16 77 1.6 3.2 0.00 0.00 0.00 51 1013.6
20260509130659 16 110 0.0 3.2 0.00 0.00 0.00 49 1013.7
20260509130150 15 142 0.0 0.0 0.00 0.00 0.00 53 1013.6
20260509125646 15 126 0.0 3.2 0.00 0.00 0.00 53 1013.5
20260509125143 14 89 3.2 3.2 0.00 0.00 0.00 54 1013.7
20260509124640 13 60 1.6 3.2 0.00 0.00 0.00 56 1013.3
20260509124137 12 48 3.2 3.2 0.00 0.00 0.00 58 1013.6
20260509123635 12 131 0.0 0.0 0.00 0.00 0.00 58 1013.5
20260509123131 12 102 1.6 3.2 0.00 0.00 0.00 62 1013.5
20260509122627 11 76 0.0 3.2 0.00 0.00 0.00 63 1013.6
20260509122124 10 93 1.6 3.2 0.00 0.00 0.00 66 1013.3
20260509121620 10 103 3.2 3.2 0.00 0.00 0.00 67 1013.3
20260509121119 9 132 3.2 3.2 0.00 0.00 0.00 68 1013.3
20260509120616 9 121 0.0 3.2 0.00 0.00 0.00 67 1013.2
20260509120115 9 117 3.2 6.4 0.00 0.00 0.00 68 1013.2
20260509115611 9 123 1.6 3.2 0.00 0.00 0.00 67 1013.3
20260509115109 9 110 3.2 3.2 0.00 0.00 0.00 68 1013.5
20260509114607 9 108 0.0 1.6 0.00 0.00 0.00 66 1013.3
20260509114106 10 26 0.0 1.6 0.00 0.00 0.00 66 1013.5
20260509113603 9 46 1.6 3.2 0.00 0.00 0.00 67 1013.3
20260509113101 9 66 0.0 1.6 0.00 0.00 0.00 65 1013.6
20260509112557 10 67 1.6 3.2 0.00 0.00 0.00 63 1013.7
20260509112054 10 116 0.0 0.0 0.00 0.00 0.00 63 1013.6
20260509111551 10 157 0.0 1.6 0.00 0.00 0.00 64 1013.5
20260509111048 10 112 3.2 3.2 0.00 0.00 0.00 63 1013.3
20260509110545 10 120 1.6 3.2 0.00 0.00 0.00 62 1013.5
20260509110042 10 110 3.2 3.2 0.00 0.00 0.00 62 1013.3
20260509105540 10 98 3.2 3.2 0.00 0.00 0.00 63 1013.5
20260509105038 10 141 0.0 3.2 0.00 0.00 0.00 63 1013.7
20260509104534 10 49 0.0 3.2 0.00 0.00 0.00 63 1013.7
20260509104031 10 92 0.0 1.6 0.00 0.00 0.00 62 1013.8
20260509103529 10 119 0.0 1.6 0.00 0.00 0.00 61 1013.6
20260509103027 10 106 1.6 3.2 0.00 0.00 0.00 61 1013.8
20260509102525 10 124 0.0 3.2 0.00 0.00 0.00 61 1013.6
20260509102021 10 155 1.6 3.2 0.00 0.00 0.00 61 1013.8
20260509101517 10 126 1.6 1.6 0.00 0.00 0.00 60 1013.6
20260509101014 11 141 0.0 0.0 0.00 0.00 0.00 59 1013.8
20260509100512 11 136 3.2 3.2 0.00 0.00 0.00 57 1013.7
20260509100009 12 150 3.2 3.2 0.00 0.00 0.00 55 1013.7
20260509095505 13 122 4.8 9.7 0.00 0.00 0.00 53 1013.5
20260509095002 13 129 4.8 8.0 0.00 0.00 0.00 53 1013.7
20260509094458 13 116 4.8 8.0 0.00 0.00 0.00 53 1013.8
20260509093956 13 113 6.4 9.7 0.00 0.00 0.00 53 1013.6
20260509093454 14 138 6.4 11.3 0.00 0.00 0.00 52 1013.7
20260509092952 14 119 6.4 14.5 0.00 0.00 0.00 51 1013.5
20260509092449 13 135 8.0 12.9 0.00 0.00 0.00 51 1013.8
20260509091948 13 131 6.4 11.3 0.00 0.00 0.00 51 1013.5
20260509091444 14 96 4.8 9.7 0.00 0.00 0.00 50 1013.3
20260509090942 15 92 6.4 14.5 0.00 0.00 0.00 49 1013.3
20260509090439 15 102 9.7 14.5 0.00 0.00 0.00 49 1013.5
20260509085937 15 102 9.7 11.3 0.00 0.00 0.00 48 1013.6
20260509085433 15 106 6.4 16.1 0.00 0.00 0.00 48 1013.6
20260509084929 15 94 8.0 11.3 0.00 0.00 0.00 48 1013.5
20260509084426 15 115 11.3 14.5 0.00 0.00 0.00 47 1013.2
20260509083924 15 101 6.4 19.3 0.00 0.00 0.00 46 1013.3
20260509083421 16 93 17.7 20.9 0.00 0.00 0.00 46 1013.6
20260509082918 16 110 8.0 19.3 0.00 0.00 0.00 46 1013.3
20260509082415 16 110 16.1 22.5 0.00 0.00 0.00 45 1013.2
20260509081912 16 89 11.3 20.9 0.00 0.00 0.00 45 1013.0
20260509081409 16 99 12.9 22.5 0.00 0.00 0.00 45 1013.0
20260509080907 16 91 14.5 20.9 0.00 0.00 0.00 46 1013.1
20260509080404 15 89 16.1 22.5 0.00 0.00 0.00 46 1013.2
20260509075903 16 103 12.9 17.7 0.00 0.00 0.00 46 1013.3
20260509075359 15 97 16.1 19.3 0.00 0.00 0.00 46 1013.5
20260509074856 15 92 6.4 17.7 0.00 0.00 0.00 47 1013.2
20260509074354 15 84 9.7 12.9 0.00 0.00 0.00 47 1013.5
20260509073850 15 101 12.9 16.1 0.00 0.00 0.00 47 1013.3
20260509073347 15 96 6.4 11.3 0.00 0.00 0.00 47 1013.7
20260509072843 15 88 4.8 14.5 0.00 0.00 0.00 46 1013.6
20260509072340 16 95 12.9 19.3 0.00 0.00 0.00 45 1013.2
20260509071837 16 87 11.3 22.5 0.00 0.00 0.00 44 1013.5
20260509071333 16 89 14.5 20.9 0.00 0.00 0.00 44 1013.7
20260509070831 16 87 12.9 17.7 0.00 0.00 0.00 44 1013.5
20260509070327 16 92 11.3 20.9 0.00 0.00 0.00 44 1013.5
20260509065824 16 102 14.5 20.9 0.00 0.00 0.00 44 1013.5
20260509065320 16 86 9.7 20.9 0.00 0.00 0.00 45 1013.6
20260509064816 16 97 6.4 16.1 0.00 0.00 0.00 45 1013.3
20260509064314 16 88 11.3 19.3 0.00 0.00 0.00 45 1013.2
20260509063811 16 86 14.5 24.1 0.00 0.00 0.00 44 1012.9
20260509063307 16 85 11.3 17.7 0.00 0.00 0.00 44 1012.9
20260509062804 16 98 14.5 17.7 0.00 0.00 0.00 44 1012.9
20260509062305 16 83 9.7 17.7 0.00 0.00 0.00 43 1012.8
20260509061758 17 80 9.7 16.1 0.00 0.00 0.00 42 1012.9
20260509061256 17 92 16.1 17.7 0.00 0.00 0.00 41 1013.0
20260509060753 17 70 16.1 22.5 0.00 0.00 0.00 41 1012.6
20260509060250 17 59 14.5 16.1 0.00 0.00 0.00 41 1012.8
20260509055746 17 75 12.9 17.7 0.00 0.00 0.00 41 1013.0
20260509055241 17 63 14.5 17.7 0.00 0.00 0.00 41 1012.9
20260509054738 17 73 12.9 19.3 0.00 0.00 0.00 41 1013.1
20260509054235 16 91 6.4 14.5 0.00 0.00 0.00 42 1013.0
20260509053734 16 89 12.9 14.5 0.00 0.00 0.00 41 1012.9
20260509053230 17 77 9.7 14.5 0.00 0.00 0.00 41 1013.1
20260509052728 16 77 9.7 12.9 0.00 0.00 0.00 41 1013.2
20260509052226 17 91 9.7 16.1 0.00 0.00 0.00 40 1013.2
20260509051723 17 91 9.7 12.9 0.00 0.00 0.00 40 1013.5
20260509051221 17 97 9.7 12.9 0.00 0.00 0.00 40 1013.5
20260509050717 17 92 11.3 14.5 0.00 0.00 0.00 40 1013.3
20260509050214 17 86 11.3 14.5 0.00 0.00 0.00 40 1013.2
20260509045711 18 96 6.4 12.9 0.00 0.00 0.00 39 1013.1
20260509045208 18 86 9.7 16.1 0.00 0.00 0.00 38 1013.2
20260509044706 17 91 8.0 12.9 0.00 0.00 0.00 39 1013.3
20260509044203 17 105 9.7 9.7 0.00 0.00 0.00 39 1013.2
20260509043659 17 84 12.9 14.5 0.00 0.00 0.00 40 1013.1
20260509043155 17 106 9.7 11.3 0.00 0.00 0.00 39 1013.3
20260509042651 17 94 3.2 4.8 0.00 0.00 0.00 40 1013.3
20260509042148 17 95 1.6 6.4 0.00 0.00 0.00 40 1013.2
20260509041644 18 88 6.4 8.0 0.00 0.00 0.00 38 1013.1
20260509041142 18 94 6.4 8.0 0.00 0.00 0.00 38 1013.2
20260509040640 18 89 6.4 9.7 0.00 0.00 0.00 38 1013.2
20260509040137 18 91 6.4 9.7 0.00 0.00 0.00 37 1013.1
20260509035634 19 91 8.0 11.3 0.00 0.00 0.00 37 1013.1
20260509035130 18 85 9.7 11.3 0.00 0.00 0.00 37 1013.0
20260509034628 18 87 9.7 9.7 0.00 0.00 0.00 37 1013.2
20260509034125 19 98 11.3 11.3 0.00 0.00 0.00 36 1013.1
20260509033622 18 92 8.0 12.9 0.00 0.00 0.00 36 1013.1
20260509033119 18 126 8.0 11.3 0.00 0.00 0.00 37 1013.0
20260509032616 18 138 6.4 11.3 0.00 0.00 0.00 35 1012.9
20260509032113 20 97 9.7 12.9 0.00 0.00 0.00 35 1012.8
20260509031611 20 80 8.0 12.9 0.00 0.00 0.00 36 1012.7
20260509031108 19 84 6.4 11.3 0.00 0.00 0.00 36 1012.6
20260509030606 18 117 4.8 6.4 0.00 0.00 0.00 37 1012.9
20260509025559 20 129 8.0 9.7 0.00 0.00 0.00 34 1012.7
20260509025054 20 78 8.0 9.7 0.00 0.00 0.00 34 1012.6
20260509024550 20 76 9.7 11.3 0.00 0.00 0.00 34 1012.5
20260509024046 21 77 8.0 11.3 0.00 0.00 0.00 33 1012.6
20260509023545 21 66 9.7 16.1 0.00 0.00 0.00 32 1012.5
20260509023041 21 74 9.7 14.5 0.00 0.00 0.00 32 1012.6
20260509022538 21 77 9.7 11.3 0.00 0.00 0.00 32 1012.3
20260509022036 21 80 6.4 11.3 0.00 0.00 0.00 32 1012.1
20260509021532 21 82 8.0 12.9 0.00 0.00 0.00 32 1012.2
20260509021029 21 91 6.4 9.7 0.00 0.00 0.00 32 1012.3
20260509020528 21 86 6.4 11.3 0.00 0.00 0.00 31 1012.2
20260509020024 22 85 8.0 12.9 0.00 0.00 0.00 31 1012.2
20260509015523 22 77 6.4 14.5 0.00 0.00 0.00 31 1012.0
20260509015020 22 69 9.7 11.3 0.00 0.00 0.00 30 1012.0
20260509014517 22 46 6.4 11.3 0.00 0.00 0.00 30 1011.9
20260509014013 23 61 8.0 9.7 0.00 0.00 0.00 29 1011.9
20260509013510 23 42 4.8 9.7 0.00 0.00 0.00 28 1011.9
20260509013005 23 50 9.7 14.5 0.00 0.00 0.00 29 1011.9
20260509012502 24 68 12.9 12.9 0.00 0.00 0.00 28 1011.9
20260509011959 24 43 6.4 12.9 0.00 0.00 0.00 27 1011.8
20260509011457 25 53 8.0 14.5 0.00 0.00 0.00 27 1011.7
20260509010954 25 42 9.7 20.9 0.00 0.00 0.00 26 1011.7
20260509010452 25 23 8.0 16.1 0.00 0.00 0.00 26 1011.7
20260509005948 25 17 9.7 17.7 0.00 0.00 0.00 25 1011.6
20260509005446 25 31 8.0 16.1 0.00 0.00 0.00 25 1011.6
20260509004940 26 22 9.7 12.9 0.00 0.00 0.00 25 1011.5
20260509004437 26 7 11.3 16.1 0.00 0.00 0.00 25 1011.7
20260509003935 26 21 9.7 17.7 0.00 0.00 0.00 25 1011.3
20260509003433 26 9 12.9 20.9 0.00 0.00 0.00 25 1011.3
20260509002930 26 8 12.9 20.9 0.00 0.00 0.00 25 1011.5
20260509002428 26 11 11.3 16.1 0.00 0.00 0.00 25 1011.2
20260509001924 26 20 12.9 20.9 0.00 0.00 0.00 25 1011.5
20260509001421 26 42 16.1 22.5 0.00 0.00 0.00 24 1011.3
20260509000918 26 16 16.1 22.5 0.00 0.00 0.00 24 1011.3
20260509000418 26 18 11.3 16.1 0.00 0.00 0.00 24 1011.2
20260508235911 26 9 16.1 30.6 0.00 0.00 0.00 24 1011.2
20260508235409 26 0 20.9 27.4 0.00 0.00 0.00 24 1011.2
20260508234906 26 24 12.9 27.4 0.00 0.00 0.00 24 1011.2
20260508234403 26 1 19.3 27.4 0.00 0.00 0.00 24 1011.2
20260508233901 26 6 24.1 33.8 0.00 0.00 0.00 24 1011.2
20260508233400 27 3 14.5 22.5 0.00 0.00 0.00 24 1011.1
20260508232856 27 6 22.5 32.2 0.00 0.00 0.00 24 1011.0
20260508232353 27 21 16.1 30.6 0.00 0.00 0.00 24 1011.1
20260508231851 27 354 9.7 20.9 0.00 0.00 0.00 24 1011.2
20260508231347 27 355 16.1 27.4 0.00 0.00 0.00 23 1011.2